Time,TemperatureF,DewpointF,PressureIn,WindDirection,WindDirectionDegrees,WindSpeedMPH,WindSpeedGustMPH,Humidity,HourlyPrecipIn,Conditions,Clouds,dailyrainin,SoftwareType,DateUTC
2013-04-29 00:13:00,60.1,56.0,29.87,WSW,251,0.0,3.0,85,0.00,,,0.00,weatherlink.com 1.10,2013-04-29 07:13:00,
2013-04-29 00:28:00,60.1,56.0,29.87,SW,229,1.0,3.0,86,0.00,,,0.00,weatherlink.com 1.10,2013-04-29 07:28:00,
2013-04-29 00:43:00,59.9,56.0,29.87,South,179,1.0,4.0,86,0.00,,,0.00,weatherlink.com 1.10,2013-04-29 07:43:00,
2013-04-29 00:58:00,59.8,56.0,29.87,SW,234,1.0,3.0,86,0.00,,,0.00,weatherlink.com 1.10,2013-04-29 07:58:00,
2013-04-29 01:13:00,59.8,56.0,29.87,South,169,1.0,4.0,86,0.00,,,0.00,weatherlink.com 1.10,2013-04-29 08:13:00,
2013-04-29 01:29:00,59.8,56.0,29.87,SSW,198,0.0,4.0,86,0.00,,,0.00,weatherlink.com 1.10,2013-04-29 08:29:00,
2013-04-29 01:43:00,59.8,55.0,29.86,SSE,151,0.0,3.0,85,0.00,,,0.00,weatherlink.com 1.10,2013-04-29 08:43:00,
2013-04-29 01:59:00,59.8,55.0,29.86,SW,220,1.0,6.0,85,0.00,,,0.00,weatherlink.com 1.10,2013-04-29 08:59:00,
2013-04-29 02:14:00,59.8,55.0,29.86,SW,218,0.0,4.0,85,0.00,,,0.00,weatherlink.com 1.10,2013-04-29 09:14:00,
2013-04-29 02:29:00,59.9,55.0,29.86,SW,236,2.0,3.0,85,0.00,,,0.00,weatherlink.com 1.10,2013-04-29 09:29:00,
2013-04-29 02:44:00,59.8,55.0,29.86,SSE,150,2.0,4.0,85,0.00,,,0.00,weatherlink.com 1.10,2013-04-29 09:44:00,
2013-04-29 02:59:00,59.8,55.0,29.85,SSW,210,0.0,4.0,85,0.00,,,0.00,weatherlink.com 1.10,2013-04-29 09:59:00,
2013-04-29 03:14:00,59.8,56.0,29.85,SSE,160,1.0,2.0,86,0.00,,,0.00,weatherlink.com 1.10,2013-04-29 10:14:00,
2013-04-29 03:29:00,59.7,56.0,29.85,SSE,154,0.0,2.0,86,0.00,,,0.00,weatherlink.com 1.10,2013-04-29 10:29:00,
2013-04-29 03:44:00,59.7,56.0,29.85,SSE,156,2.0,4.0,86,0.00,,,0.00,weatherlink.com 1.10,2013-04-29 10:44:00,
2013-04-29 03:59:00,59.9,56.0,29.85,SSW,194,1.0,3.0,86,0.00,,,0.00,weatherlink.com 1.10,2013-04-29 10:59:00,
2013-04-29 04:14:00,60.0,56.0,29.85,SW,216,2.0,3.0,87,0.00,,,0.00,weatherlink.com 1.10,2013-04-29 11:14:00,
2013-04-29 04:29:00,60.1,56.0,29.84,SE,144,1.0,2.0,87,0.00,,,0.00,weatherlink.com 1.10,2013-04-29 11:29:00,
2013-04-29 04:44:00,60.1,56.0,29.84,SSE,167,0.0,2.0,87,0.00,,,0.00,weatherlink.com 1.10,2013-04-29 11:44:00,
2013-04-29 04:59:00,60.1,56.0,29.85,ESE,109,0.0,4.0,87,0.00,,,0.00,weatherlink.com 1.10,2013-04-29 11:59:00,
2013-04-29 05:14:00,60.2,56.0,29.85,ENE,72,2.0,4.0,87,0.00,,,0.00,weatherlink.com 1.10,2013-04-29 12:14:00,
2013-04-29 05:29:00,60.1,56.0,29.85,ESE,118,1.0,6.0,86,0.00,,,0.00,weatherlink.com 1.10,2013-04-29 12:29:00,
2013-04-29 05:44:00,59.9,56.0,29.85,ESE,113,2.0,3.0,86,0.00,,,0.00,weatherlink.com 1.10,2013-04-29 12:44:00,
2013-04-29 05:59:00,59.9,56.0,29.85,SE,130,3.0,4.0,86,0.00,,,0.00,weatherlink.com 1.10,2013-04-29 12:59:00,
2013-04-29 06:14:00,59.9,56.0,29.85,NE,44,1.0,4.0,86,0.00,,,0.00,weatherlink.com 1.10,2013-04-29 13:14:00,
2013-04-29 06:29:00,60.1,56.0,29.86,South,191,0.0,3.0,86,0.00,,,0.00,weatherlink.com 1.10,2013-04-29 13:29:00,
2013-04-29 06:44:00,60.1,56.0,29.86,SSE,160,1.0,3.0,86,0.00,,,0.00,weatherlink.com 1.10,2013-04-29 13:44:00,
2013-04-29 06:59:00,60.1,56.0,29.86,SE,144,2.0,6.0,85,0.00,,,0.00,weatherlink.com 1.10,2013-04-29 13:59:00,
2013-04-29 07:14:00,60.2,56.0,29.87,ESE,117,1.0,6.0,85,0.00,,,0.00,weatherlink.com 1.10,2013-04-29 14:14:00,
2013-04-29 07:29:00,60.3,56.0,29.87,East,100,4.0,6.0,84,0.00,,,0.00,weatherlink.com 1.10,2013-04-29 14:29:00,
2013-04-29 07:44:00,60.4,55.0,29.87,ESE,115,1.0,5.0,83,0.00,,,0.00,weatherlink.com 1.10,2013-04-29 14:44:00,
2013-04-29 07:59:00,60.4,55.0,29.87,SE,139,3.0,6.0,83,0.00,,,0.00,weatherlink.com 1.10,2013-04-29 14:59:00,
2013-04-29 08:14:00,60.6,55.0,29.87,ESE,117,2.0,6.0,83,0.00,,,0.00,weatherlink.com 1.10,2013-04-29 15:14:00,
2013-04-29 08:29:00,60.6,55.0,29.87,SE,144,0.0,6.0,82,0.00,,,0.00,weatherlink.com 1.10,2013-04-29 15:29:00,
2013-04-29 08:44:00,61.0,56.0,29.87,ESE,123,0.0,5.0,82,0.00,,,0.00,weatherlink.com 1.10,2013-04-29 15:44:00,
2013-04-29 08:59:00,61.4,56.0,29.87,SW,228,2.0,5.0,82,0.00,,,0.00,weatherlink.com 1.10,2013-04-29 15:59:00,
2013-04-29 09:14:00,61.8,56.0,29.88,WSW,248,1.0,4.0,81,0.00,,,0.00,weatherlink.com 1.10,2013-04-29 16:14:00,
2013-04-29 09:29:00,61.9,56.0,29.87,SW,230,0.0,4.0,81,0.00,,,0.00,weatherlink.com 1.10,2013-04-29 16:29:00,
2013-04-29 09:44:00,61.8,56.0,29.87,SSE,159,2.0,6.0,81,0.00,,,0.00,weatherlink.com 1.10,2013-04-29 16:44:00,
2013-04-29 09:59:00,61.8,56.0,29.87,SSW,194,0.0,5.0,81,0.00,,,0.00,weatherlink.com 1.10,2013-04-29 16:59:00,
2013-04-29 10:14:00,62.3,56.0,29.88,SSW,206,3.0,6.0,80,0.00,,,0.00,weatherlink.com 1.10,2013-04-29 17:14:00,
2013-04-29 10:29:00,62.3,56.0,29.88,SSW,203,6.0,6.0,80,0.00,,,0.00,weatherlink.com 1.10,2013-04-29 17:29:00,
2013-04-29 10:44:00,62.5,56.0,29.88,SSE,168,2.0,6.0,79,0.00,,,0.00,weatherlink.com 1.10,2013-04-29 17:44:00,
2013-04-29 10:59:00,63.0,56.0,29.88,SSW,206,4.0,6.0,78,0.00,,,0.00,weatherlink.com 1.10,2013-04-29 17:59:00,
2013-04-29 11:14:00,63.6,56.0,29.88,SW,214,6.0,7.0,75,0.00,,,0.00,weatherlink.com 1.10,2013-04-29 18:14:00,
2013-04-29 11:29:00,64.0,56.0,29.87,WSW,243,5.0,7.0,76,0.00,,,0.00,weatherlink.com 1.10,2013-04-29 18:29:00,
2013-04-29 11:44:00,65.1,56.0,29.86,SSW,208,4.0,6.0,73,0.00,,,0.00,weatherlink.com 1.10,2013-04-29 18:44:00,
2013-04-29 11:59:00,66.0,57.0,29.86,ESE,120,4.0,6.0,72,0.00,,,0.00,weatherlink.com 1.10,2013-04-29 18:59:00,
2013-04-29 12:14:00,66.6,56.0,29.86,SSE,153,3.0,6.0,69,0.00,,,0.00,weatherlink.com 1.10,2013-04-29 19:14:00,
2013-04-29 12:29:00,67.0,56.0,29.85,SE,129,3.0,6.0,69,0.00,,,0.00,weatherlink.com 1.10,2013-04-29 19:29:00,
2013-04-29 12:44:00,68.1,56.0,29.84,SSW,200,2.0,7.0,66,0.00,,,0.00,weatherlink.com 1.10,2013-04-29 19:44:00,
2013-04-29 12:59:00,68.1,56.0,29.84,South,169,5.0,8.0,65,0.00,,,0.00,weatherlink.com 1.10,2013-04-29 19:59:00,
2013-04-29 13:14:00,68.0,57.0,29.84,SSW,208,2.0,7.0,67,0.00,,,0.00,weatherlink.com 1.10,2013-04-29 20:14:00,
2013-04-29 13:29:00,68.3,56.0,29.83,SW,233,3.0,11.0,65,0.00,,,0.00,weatherlink.com 1.10,2013-04-29 20:29:00,
2013-04-29 13:44:00,67.8,56.0,29.83,SW,215,4.0,9.0,66,0.00,,,0.00,weatherlink.com 1.10,2013-04-29 20:44:00,
2013-04-29 13:59:00,67.4,56.0,29.83,West,262,1.0,12.0,68,0.00,,,0.00,weatherlink.com 1.10,2013-04-29 20:59:00,
2013-04-29 14:14:00,67.9,56.0,29.82,SW,215,9.0,9.0,65,0.00,,,0.00,weatherlink.com 1.10,2013-04-29 21:14:00,
2013-04-29 14:29:00,68.0,56.0,29.82,SSW,212,2.0,9.0,65,0.00,,,0.00,weatherlink.com 1.10,2013-04-29 21:29:00,
2013-04-29 14:45:00,67.8,56.0,29.82,WSW,240,4.0,10.0,66,0.00,,,0.00,weatherlink.com 1.10,2013-04-29 21:45:00,
2013-04-29 15:00:00,67.9,56.0,29.81,WSW,239,6.0,8.0,65,0.00,,,0.00,weatherlink.com 1.10,2013-04-29 22:00:00,
2013-04-29 15:15:00,68.2,56.0,29.80,SW,219,3.0,6.0,65,0.00,,,0.00,weatherlink.com 1.10,2013-04-29 22:15:00,
2013-04-29 15:30:00,68.0,55.0,29.80,SSE,153,6.0,9.0,63,0.00,,,0.00,weatherlink.com 1.10,2013-04-29 22:30:00,
2013-04-29 15:45:00,68.1,55.0,29.79,SSW,207,3.0,7.0,64,0.00,,,0.00,weatherlink.com 1.10,2013-04-29 22:45:00,
2013-04-29 16:00:00,68.5,55.0,29.78,SE,142,6.0,9.0,63,0.00,,,0.00,weatherlink.com 1.10,2013-04-29 23:00:00,
2013-04-29 16:15:00,68.7,56.0,29.78,SE,145,4.0,6.0,64,0.00,,,0.00,weatherlink.com 1.10,2013-04-29 23:15:00,
2013-04-29 16:30:00,69.0,55.0,29.78,SSE,168,2.0,8.0,62,0.00,,,0.00,weatherlink.com 1.10,2013-04-29 23:30:00,
2013-04-29 16:45:00,69.3,55.0,29.77,SSW,213,4.0,8.0,61,0.00,,,0.00,weatherlink.com 1.10,2013-04-29 23:45:00,
2013-04-29 17:00:00,68.8,55.0,29.77,SSE,148,1.0,6.0,62,0.00,,,0.00,weatherlink.com 1.10,2013-04-30 00:00:00,
2013-04-29 17:15:00,68.6,56.0,29.77,SE,134,5.0,7.0,64,0.00,,,0.00,weatherlink.com 1.10,2013-04-30 00:15:00,
2013-04-29 17:30:00,68.7,55.0,29.76,SSW,212,3.0,6.0,63,0.00,,,0.00,weatherlink.com 1.10,2013-04-30 00:30:00,
2013-04-29 17:45:00,67.7,55.0,29.76,SSW,193,0.0,6.0,65,0.00,,,0.00,weatherlink.com 1.10,2013-04-30 00:45:00,
2013-04-29 18:00:00,67.5,56.0,29.75,SSE,153,3.0,7.0,66,0.00,,,0.00,weatherlink.com 1.10,2013-04-30 01:00:00,
2013-04-29 18:15:00,67.2,55.0,29.75,SSW,199,3.0,5.0,66,0.00,,,0.00,weatherlink.com 1.10,2013-04-30 01:15:00,
2013-04-29 18:30:00,67.1,56.0,29.76,South,178,5.0,5.0,67,0.00,,,0.00,weatherlink.com 1.10,2013-04-30 01:30:00,
2013-04-29 18:45:00,65.8,55.0,29.76,East,83,1.0,8.0,69,0.00,,,0.00,weatherlink.com 1.10,2013-04-30 01:45:00,
2013-04-29 19:00:00,64.9,55.0,29.76,SW,227,1.0,6.0,71,0.00,,,0.00,weatherlink.com 1.10,2013-04-30 02:00:00,
2013-04-29 19:15:00,63.6,55.0,29.76,SSW,203,3.0,6.0,74,0.00,,,0.00,weatherlink.com 1.10,2013-04-30 02:15:00,
2013-04-29 19:30:00,62.3,55.0,29.77,West,264,1.0,7.0,77,0.00,,,0.00,weatherlink.com 1.10,2013-04-30 02:30:00,
2013-04-29 19:45:00,61.5,55.0,29.77,WSW,245,2.0,6.0,78,0.00,,,0.00,weatherlink.com 1.10,2013-04-30 02:45:00,
2013-04-29 20:00:00,61.0,54.0,29.78,SW,214,1.0,7.0,79,0.00,,,0.00,weatherlink.com 1.10,2013-04-30 03:00:00,
2013-04-29 20:15:00,60.7,55.0,29.79,South,188,3.0,8.0,80,0.00,,,0.00,weatherlink.com 1.10,2013-04-30 03:15:00,
2013-04-29 20:30:00,60.6,54.0,29.79,WSW,247,1.0,5.0,80,0.00,,,0.00,weatherlink.com 1.10,2013-04-30 03:30:00,
2013-04-29 20:45:00,60.7,55.0,29.80,SSW,198,1.0,8.0,81,0.00,,,0.00,weatherlink.com 1.10,2013-04-30 03:45:00,
2013-04-29 21:00:00,61.0,55.0,29.80,SSE,152,3.0,6.0,81,0.00,,,0.00,weatherlink.com 1.10,2013-04-30 04:00:00,
2013-04-29 21:15:00,61.3,55.0,29.80,SE,128,3.0,4.0,81,0.00,,,0.00,weatherlink.com 1.10,2013-04-30 04:15:00,
2013-04-29 21:30:00,61.7,56.0,29.81,SSE,151,4.0,7.0,81,0.00,,,0.00,weatherlink.com 1.10,2013-04-30 04:30:00,
2013-04-29 21:45:00,61.6,55.0,29.81,South,175,5.0,7.0,80,0.00,,,0.00,weatherlink.com 1.10,2013-04-30 04:45:00,
2013-04-29 22:00:00,61.5,55.0,29.81,SSE,150,4.0,5.0,80,0.00,,,0.00,weatherlink.com 1.10,2013-04-30 05:00:00,
2013-04-29 22:15:00,61.6,55.0,29.81,SSE,155,1.0,3.0,80,0.00,,,0.00,weatherlink.com 1.10,2013-04-30 05:15:00,
2013-04-29 22:30:00,61.7,55.0,29.81,SW,217,1.0,4.0,79,0.00,,,0.00,weatherlink.com 1.10,2013-04-30 05:30:00,
2013-04-29 22:45:00,61.6,55.0,29.82,SW,233,1.0,3.0,80,0.00,,,0.00,weatherlink.com 1.10,2013-04-30 05:45:00,
2013-04-29 23:00:00,61.5,55.0,29.82,SSE,157,2.0,5.0,80,0.00,,,0.00,weatherlink.com 1.10,2013-04-30 06:00:00,
2013-04-29 23:15:00,61.4,55.0,29.82,SE,143,2.0,6.0,79,0.00,,,0.00,weatherlink.com 1.10,2013-04-30 06:15:00,
2013-04-29 23:30:00,61.0,54.0,29.82,SE,136,7.0,9.0,78,0.00,,,0.00,weatherlink.com 1.10,2013-04-30 06:30:00,
2013-04-29 23:45:00,60.8,54.0,29.82,SE,142,3.0,6.0,78,0.00,,,0.00,weatherlink.com 1.10,2013-04-30 06:45:00,